Location: Guayaquil
(2.1667°S, 79.9000°W)
Time: 14:35:01
(UTC-05:00)

N. Korean satellite - Visible Passes

Search period start: 26 January 2021 00:00
Search period end: 05 February 2021 00:00
Orbit: 452 x 502 km, 97.2° (Epoch: 25 January)

Date Brightness Start Highest point End Pass type
(mag) Time Alt. Az. Time Alt. Az. Time Alt. Az.
26 Jan 7.2 05:48:16 10° NNW 05:51:15 29° W 05:54:17 10° SW visible
27 Jan 6.4 05:21:20 10° NNE 05:24:43 84° ESE 05:28:08 10° S visible
28 Jan 8.7 04:55:18 10° NE 04:58:12 26° ESE 05:01:07 10° SSE visible
29 Jan 7.9 06:02:22 10° NW 06:04:44 18° W 06:07:06 10° SW visible
30 Jan 6.5 05:34:51 10° N 05:38:10 52° W 05:41:31 10° SSW visible
31 Jan 7.5 05:08:20 10° NNE 05:11:37 46° ESE 05:14:56 10° S visible
01 Feb 9.5 04:42:53 10° ENE 04:45:05 16° ESE 04:47:19 10° SE visible
02 Feb 7.3 05:48:35 10° NNW 05:51:35 29° W 05:54:36 10° SW visible
03 Feb 6.4 05:21:36 10° NNE 05:25:00 86° E 05:28:29 10° S visible
04 Feb 8.6 04:55:31 10° NE 04:58:28 27° ESE 05:01:27 10° SSE visible
